Southwest Florida International Airport
KRSW : now visible

Airfield :











YOU CAN JOIN US ON...

 
LOGIN :

Register | Disclaimer

   EN    FR    IT 

 









Legend :    VFR   Marginal VFR   IFR   Intensive IFR   Very Intensive IFR
Visi :
Ceiling :
>= 8 km
>= 3000ft
5 to 8 km
1000 to 3000 ft
1500m to 5 km
500 to 1000 ft
800 to 1500m
200 to 500 ft
< 800m
< 200 ft
Symbols :   Thunderstorms  Fog  Heavy snow  Heavy precipitations  Wind > 20 kt






- Airport Elevation : 30 ft
- IATA code : RSW


KRSW - Southwest Florida International

CURRENT METAR :
  • 192253Z 36008KT 10SM CLR 21/12 A2999 RMK AO2 SLP152 T02110122

EXPIRED METARs :
  • 192153Z 32009KT 10SM CLR 23/14 A2996 RMK AO2 SLP143 T02280139
  • 192053Z 32009G15KT 10SM CLR 24/14 A2994 RMK AO2 SLP135 T02440139 53005

TAF KRSW
Valid from the 20 at 00:00 until the 21 at 00:00 UTC


192330Z 2000/2024 31010KT P6SM SKC
FM200100 VRB04KT P6SM SKC
FM201500 01008KT P6SM SKC



MET'MAP, your aeronautical weather chart ! - Copyright ORBIFLY December 2007 - Disclaimer

ORBIFLY MET'MAP TEAM :

Programming & Development : Alexandra Zaïnal
Concept & Development : Baudouin d'Aumeries
Co-Development & Prog : Marc-Olivier Méhu
Technical & hardware support : Manuel Goepfert

Contact : metmap@orbifly.com




SOURCES & CREDITS :

   NOAA       Earth
Advisory